COSMOS 2529 (757)

Last updated on July 6, 2021, 3:40 p.m. UTC

1 43687U 18086A   21186.65586932  .00000028  00000-0  00000-0 0  9993
2 43687  64.4393 254.0268 0010663 264.3363 141.8723  2.13102101 20772
UTC
Height (km)
Latitude
Longitude
Inclination
Orbital Period
UTC large
Height (km)
Speed (km/s)
/
Latitude / Longitude
Inclination (degrees)
Orbital Period (minutes)
Azimuth
Elevation
Range (km)
Doppler Factor
iOS Compass Heading
iOS Angle